Location: Colonia Mina de C?rbuni
(46.1667°N, 22.7167°E)
Time: 05:34:17
(UTC+00:00)

Cosmos 1850 Rocket - Pass Details

Date: 04 February 2023
Orbit: 753 x 784 km, 74.0° (Epoch: 21 March)

Event Time Altitude Azimuth Distance (km) Brightness Sun altitude
Rises 17:46:49 0° 208° (SSW) 3,202 7.6 -22.5°
Reaches altitude 10° 17:49:12 10° 211° (SSW) 2,278 6.8 -22.9°
Maximum altitude 17:54:20 67° 294° (WNW) 817 4.2 -23.8°
Enters shadow 17:58:00 19° 14° (NNE) 1,729 5.7 -24.5°
